Miscellaneous Local Product
Issued by NWS Hastings, NE

Home | Current Version | Previous Version | Text Only | Print | Product List | Glossary Off
Versions: 1 2 3 4 5 6 7 8 9 10 11 12 13 14 15 16 17 18 19 20 21 22 23 24 25 26 27 28 29 30 31 32 33 34 35 36 37 38 39 40 41 42 43 44 45 46 47 48 49 50

000
AXUS43 KGID 031302
MISGRI

GID CWA HOURLY WEATHER ROUNDUP
NATIONAL WEATHER SERVICE HASTINGS NE
700 AM CST TUE MAR 03 2015

NOTE: "FAIR" INDICATES FEW OR NO CLOUDS BELOW 12,000 FEET WITH NO
SIGNIFICANT WEATHER AND/OR OBSTRUCTIONS TO VISIBILITY.

...SOUTH CENTRAL NEBRASKA...

CITY           SKY/WX    TMP DP  RH WIND       PRES   REMARKS
GRAND ISLAND   CLOUDY    29  24  82 NW8       29.68R WCI  21
HASTINGS       CLOUDY    30  24  78 NW9       29.66R WCI  22
KEARNEY        CLOUDY    28  21  74 NW7       29.68R WCI  21
ORD            CLOUDY    27  21  78 W3        29.68R
YORK           CLOUDY    30  28  93 NW6       29.66R FOG     WCI  24
AURORA         CLOUDY    30  28  92 W6        29.67R WCI  24
LEXINGTON      MOCLDY    27  23  85 NW12      29.66S WCI  16
HOLDREGE       CLOUDY    28  23  81 NW8       29.66R WCI  20
HEBRON         CLOUDY    34  30  83 W7        29.64F WCI  28

...NEBRASKA PANHANDLE...

CITY           SKY/WX    TMP DP  RH WIND       PRES   REMARKS
CHADRON        CLOUDY    17  12  80 NE26G36   29.92R HAZE    WCI  -2
ALLIANCE       LGT SNOW  16  12  84 N29G37    29.82R FOG     WCI  -4
SCOTTSBLUFF    CLOUDY    24  19  81 N14       29.85R WCI  12
SIDNEY         CLOUDY    23  19  85 N28G36    29.76R WCI   6

...WESTERN AND NORTH CENTRAL NEBRASKA...

CITY           SKY/WX    TMP DP  RH WIND       PRES   REMARKS
VALENTINE      LGT SNOW  19  14  81 N23G32    29.82R WCI   2
AINSWORTH      LGT SNOW  22  18  87 N35G43    29.77R WCI   2
ONEILL         CLOUDY    29  26  88 W8        29.69R WCI  21
BROKEN BOW     CLOUDY    29  23  78 W9        29.68R WCI  20
IMPERIAL         N/A     31  28  89 NW15      29.73R WCI  20
NORTH PLATTE   CLOUDY    29  26  89 W8        29.72R WCI  21
MCCOOK         CLOUDY    28  23  81 NW8       29.70R WCI  20

...EASTERN NEBRASKA...

CITY           SKY/WX    TMP DP  RH WIND       PRES   REMARKS
NORFOLK        CLOUDY    29  27  92 W6        29.68R FOG     WCI  23
SO SIOUX CITY  CLOUDY    29  27  92 W5        29.69R FOG     WCI  24
TEKAMAH        CLOUDY    31  29  92 SE7       29.64F FOG     WCI  24
COLUMBUS       CLOUDY    30  21  69 W8        29.69R WCI  23
ALBION         CLOUDY    29  22  76 NW9       29.68R WCI  21
OMAHA EPPLEY   FRZ DRZL  31  31 100 SE5       29.65F FOG     WCI  26
OFFUTT AFB     FRZ DRZL  32  32 100 S3        29.65S FOG
MILLARD        DRIZZLE   32  31  96 CALM      29.66S
LINCOLN        FOG       32  32 100 VRB3      29.67R VSB 3/4
NEBRASKA CITY  CLOUDY    33  33 100 S10       29.66S FOG     WCI  25
BEATRICE       CLOUDY    34  32  92 S12G17    29.65S FOG     WCI  26
FALLS CITY     CLOUDY    36  34  92 S9        29.67F FOG     WCI  29

...NORTHERN KANSAS...

CITY           SKY/WX    TMP DP  RH WIND       PRES   REMARKS
GOODLAND       CLOUDY    31  30  96 N18G24    29.68R FOG     WCI  19
HILL CITY      MOCLDY    31  27  85 NW7       29.69R WCI  24
PHILLIPSBURG   PTCLDY    32  28  86 NW8       29.68R WCI  25
SMITH CENTER   MOCLDY    28  27  93 NW13      29.67R WCI  18
BELOIT         CLEAR     32  28  86 CALM      29.63R
HAYS           CLOUDY    36  27  69 W9        29.66R WCI  29
RUSSELL        CLOUDY    36  33  89 SW14      29.63R WCI  27
CONCORDIA      MOCLDY    35  32  88 SW9       29.63S WCI  28
SALINA         CLOUDY    39  33  79 SW25      29.66F WCI  28
TOPEKA         CLOUDY    39  36  89 SW14      29.71F WCI  31



USA.gov is the U.S. government's official web portal to all federal, state and local government web resources and services.